WARM SPRINGS (USACE) (WRS)

Elevation: 440' · RUSSIAN R basin · Operator: US Army Corps of Engineers

Provisional data, subject to change.
Query executed Friday at 12:45:33   clock

Select a sensor type for a plot of data.
Note: Reservoir Flows are daily averages.

Earlier

Date RES ELE    STORAGE    RES CHG    TOC STO    ABV TOC    OUTFLOW    INFLOW    PPT INC    TEMP MN    TEMP MX    EVP PAN   
 FEET   AF   AF   AF   AF   CFS   CFS   INCHES   DEG F   DEG F   INCHES  
03/30/2016 451.92 247318 -186 245000 2318 336 250 0.00 2 24 0.11
03/31/2016 451.82 247052 -266 245000 2052 394 269 0.00 6 26 0.12
04/01/2016 451.73 246814 -238 245000 1814 327 216 0.00 4 23 0.11
04/02/2016 451.69 246708 -106 245000 1708 240 195 0.01 8 25 0.11
04/03/2016 451.64 246575 -133 245000 1575 236 178 0.00 9 24 0.12
04/04/2016 451.60 246469 -106 245000 1469 237 194 0.00 12 27 0.14
04/05/2016 451.55 246337 -132 245000 1337 236 182 0.03 9 33 0.16
04/06/2016 451.48 246151 -186 245000 1151 236 155 0.02 8 35 0.16
04/07/2016 451.41 245966 -185 245000 966 236 151 0.00 9 24 0.10
04/08/2016 451.34 245781 -185 245000 781 236 152 0.00 10 25 0.11
04/09/2016 451.29 245649 -132 245000 649 236 172 0.02 13 15 0.03
04/10/2016 451.20 245411 -238 245000 411 236 121 0.01 11 17 0.05
04/11/2016 451.13 245226 -185 245000 226 236 150 0.02 12 20 0.09
04/12/2016 451.05 245015 -211 245000 15 199 103 0.00 10 23 0.14
04/13/2016 451.01 244910 -105 245000 -90 151 109 0.17 9 23 0.15
04/14/2016 450.97 244804 -106 245000 -196 151 107 0.04 5 20 0.12
04/15/2016 450.93 244699 -105 245000 -301 111 70 0.03 5 26 0.16
04/16/2016 450.91 244646 -53 245000 -354 81 68 0.07 10 33 0.18
04/17/2016 450.89 244593 -53 245000 -407 81 68 0.00 7 32 0.18
04/18/2016 450.87 244541 -52 245000 -459 81 69 0.00 9 32 0.19
04/19/2016 450.85 244488 -53 245000 -512 81 67 0.00 8 31 0.17
04/20/2016 450.82 244409 -79 245000 -591 81 52 0.00 5 26 0.14
04/21/2016 450.81 244383 -26 245000 -617 79 75 0.06 11 22 0.12
04/22/2016 450.88 244567 184 245000 -433 80 179 0.84 8 17 0.08
04/23/2016 450.86 244514 -53 245000 -486 81 64 0.00 6 23 0.13
04/24/2016 450.84 244462 -52 245000 -538 81 68 0.01 11 21 0.18
04/25/2016 450.80 244356 -106 245000 -644 81 42 0.00 8 22 0.19
04/26/2016 450.77 244277 -79 245000 -723 76 50 0.01 9 24 0.18
04/27/2016 450.75 244225 -52 245000 -775 76 59 0.06 6 20 0.13
04/28/2016 450.71 244119 -106 245000 -881 77 39 0.00 10 29 0.22
04/29/2016 -- -- -- -- -- -- -- -- -- -- --

Later | Latest

Warning! This data is preliminary and subject to revision.

Show WRS Map | Plot WRS Data | 1 Month WRS Data | Real-Time WRS Data | WRS Info